[[{"header":{"parameterUnit":"m.s-1","parameterCategory":2,"la1":30.2991,"la2":30.254,"lo1":-89.0895,"lo2":-89.0444,"dy":0.0017,"dx":0.0017,"nx":28,"ny":28,"refTime":"2025-11-23T09:00:00:Z","depth":"0","parameterNumber":2,"parameterNumberName":"U-component_of_CURRENTS"},"data":[0,0,0,0,0,0,0,0,0,0,0,0,0,0,0,0,0,0,0,0,0,0,0,0,0,0,0,0,0,0,0,0,0,0,0,0,0,0,0,0,0,0,0,0,0,0,0,0,0,0,0,0,0,0,0,0,0,0,0.267,0.267,0,0.2723,0.2723,0.2723,0.2734,0.2734,0.2733,0.2733,0.2738,0.2739,0.2739,0,0,0,0,0,0,0,0,0,0,0,0,0,0.2584,0.2585,0.267,0.267,0.2671,0.2722,0.2723,0.2723,0.2734,0.2734,0.2733,0.2733,0.2738,0.2739,0.2739,0,0,0,0,0,0,0,0,0,0,0,0,0,0.2625,0.2585,0.2669,0.2684,0.2687,0.2722,0.2723,0.2724,0.2734,0.2734,0.2733,0.2733,0.2738,0.2739,0.2739,0.2748,0,0,0.274,0.2741,0,0,0,0,0,0,0,0,0.2622,0.2628,0.2681,0.2684,0.2686,0.2723,0.2695,0.273,0.2734,0.2713,0.2733,0.2733,0.2731,0.2732,0.274,0.2748,0.2748,0.274,0.2741,0.2741,0.2741,0,0,0,0,0,0,0,0.262,0.2626,0.2688,0.2682,0.2685,0.2691,0.2696,0.2701,0.272,0.2715,0.2717,0.2726,0.2731,0.2739,0.274,0.2748,0.274,0.2741,0.2741,0.2741,0.2792,0.2793,0,0,0,0,0,0,0.2618,0.2623,0.2686,0.269,0.2656,0.2693,0.2699,0.271,0.2721,0.2724,0.2727,0.2727,0.2738,0.2739,0.274,0.2781,0.2741,0.2741,0.2742,0.2791,0.2793,0.2794,0,0,0,0,0,0,0.2616,0.2623,0.2684,0.2659,0.2668,0.2695,0.2707,0.2711,0.272,0.2731,0.2732,0.2732,0.2738,0.2739,0.2756,0.278,0.2742,0.2742,0.279,0.2792,0.2793,0.2844,0,0,0,0,0,0,0.2613,0.2622,0.2628,0.2659,0.2669,0.2714,0.2708,0.2712,0.2728,0.2729,0.2736,0.2737,0.2738,0.2755,0.2756,0.278,0.2742,0.2789,0.2791,0.2793,0.2841,0.2847,0.2852,0,0,0,0,0,0.261,0.2622,0.2628,0.2636,0.2677,0.2715,0.272,0.2736,0.2728,0.2741,0.2747,0.2736,0.2769,0.2757,0.2757,0.2782,0.2788,0.279,0.2793,0.2838,0.2846,0.2852,0,0,0,0,0,0,0.2582,0.2625,0.2632,0.2655,0.2686,0.2718,0.273,0.2737,0.2752,0.2749,0.2749,0.275,0.2775,0.277,0.2756,0.2803,0.2777,0.278,0.2811,0.2818,0.2824,0.2832,0.2743,0,0,0,0,0,0.258,0.2602,0.2642,0.2659,0.2676,0.2701,0.2716,0.273,0.2749,0.2755,0.2761,0.2769,0.2787,0.2794,0.2805,0.2828,0.2841,0.2844,0.285,0.2855,0.2863,0.2895,0.2904,0.2802,0.2802,0.2802,0,0,0.2572,0.26,0.261,0.2655,0.2677,0.2713,0.2709,0.2738,0.2767,0.2752,0.2783,0.2788,0.2797,0.2828,0.2839,0.2826,0.2896,0.2858,0.2862,0.2868,0.2899,0.2909,0.2917,0.2803,0.2803,0.2803,0,0,0.2578,0.2594,0.2621,0.2652,0.2696,0.2718,0.2727,0.2763,0.2778,0.281,0.2811,0.2831,0.2849,0.287,0.288,0.2921,0.2924,0.2922,0.296,0.2992,0.3,0.3008,0.3061,0.3073,0.2926,0.2926,0.2926,0,0.2567,0.2606,0.2633,0.2672,0.2698,0.2721,0.2757,0.2782,0.2818,0.284,0.2825,0.2873,0.2874,0.2924,0.2941,0.2936,0.2959,0.2933,0.3,0.3007,0.3015,0.3067,0.3079,0.2929,0.2929,0.2929,0.2928,0,0.2602,0.2632,0.2651,0.2709,0.2741,0.2773,0.2818,0.2847,0.2861,0.2889,0.2934,0.294,0.2972,0.2975,0.297,0.3027,0.3031,0.3003,0.2983,0.3028,0.308,0.3093,0.2933,0.2932,0.2931,0.2931,0,0,0.2578,0.2659,0.2666,0.2696,0.2762,0.279,0.2846,0.2907,0.2943,0.2973,0.3022,0.305,0.3054,0.3066,0.3064,0.3086,0.316,0.3069,0.3069,0.3123,0.3253,0.3311,0.333,0.3142,0.3144,0.3145,0.3278,0,0.2596,0.2668,0.2706,0.2765,0.2804,0.2847,0.2893,0.295,0.2992,0.3044,0.307,0.311,0.309,0.3104,0.313,0.3149,0.3191,0.3128,0.3199,0.3202,0.3249,0.3345,0.32,0.331,0.329,0.3292,0.3293,0,0.2617,0.2666,0.2725,0.2797,0.2816,0.2849,0.2928,0.2975,0.3061,0.3092,0.3148,0.3174,0.3236,0.3191,0.3274,0.3237,0.3257,0.3265,0.3269,0.3313,0.3283,0.3257,0.3333,0.3267,0.3312,0.3311,0.3309,0,0.2588,0.2674,0.2716,0.2742,0.2829,0.2856,0.29,0.2986,0.3038,0.3127,0.3176,0.3246,0.3289,0.3321,0.3376,0.3324,0.3466,0.3392,0.3471,0.3476,0.3362,0.3355,0.3381,0.3454,0.3454,0.3454,0.3453,0,0.2589,0.2623,0.2701,0.2724,0.2769,0.2836,0.2894,0.2948,0.3046,0.3121,0.3193,0.3275,0.332,0.3416,0.3427,0.3527,0.3521,0.3515,0.3524,0.338,0.3373,0.3316,0.3265,0.3459,0.3457,0.3456,0.3456,0,0.2542,0.26,0.2647,0.273,0.2752,0.2779,0.288,0.2925,0.3027,0.3129,0.3166,0.3319,0.3456,0.3532,0.3613,0.3614,0.3593,0.371,0.3564,0.3555,0.354,0.3497,0.3431,0.3319,0.3805,0.3807,0.3809,0,0.2521,0.2541,0.2621,0.264,0.267,0.273,0.2766,0.2885,0.2946,0.3165,0.3206,0.3405,0.3522,0.3712,0.3751,0.3831,0.37,0.3755,0.3625,0.3567,0.3523,0.3368,0.3264,0.3495,0.3494,0.3493,0.3493,0,0.2466,0.2489,0.252,0.2567,0.2601,0.2657,0.2728,0.2777,0.2935,0.3043,0.3202,0.3327,0.3562,0.3616,0.3784,0.3801,0.358,0.3749,0.3694,0.3316,0.3135,0.3022,0.3404,0.3488,0.3488,0.3488,0.3489,0.3489,0.2396,0.2402,0.2441,0.2474,0.2515,0.2555,0.2564,0.2667,0.2763,0.2898,0.3096,0.3231,0.3441,0.3655,0.3671,0.3651,0.3581,0.3534,0.35,0.3362,0.3202,0.3621,0.3714,0.3716,0.3717,0.3719,0.372,0,0.2306,0.2326,0.235,0.2378,0.2378,0.2448,0.2509,0.2507,0.2566,0.2752,0.2874,0.3095,0.3231,0.3392,0.3491,0.3393,0.3178,0.3322,0.3015,0.2932,0.3316,0.3253,0.3241,0.3241,0.3241,0.3241,0.3241,0.3241,0.2256,0.2247,0.2268,0.2233,0.2249,0.2221,0.2232,0.2256,0.2351,0.2468,0.2591,0.2743,0.3094,0.3343,0.3325,0.3223,0.2934,0.2834,0.2824,0.3061,0.3074,0.3087,0.3017,0.2956,0.2955,0.2275,0.227,0.2267]},{"header":{"parameterUnit":"m.s-1","parameterCategory":2,"la1":30.2991,"la2":30.254,"lo1":-89.0895,"lo2":-89.0444,"dy":0.0017,"dx":0.0017,"nx":28,"ny":28,"refTime":"2025-11-23T09:00:00:Z","depth":"0","parameterNumber":3,"parameterNumberName":"V-component_of_CURRENTS"},"data":[0,0,0,0,0,0,0,0,0,0,0,0,0,0,0,0,0,0,0,0,0,0,0,0,0,0,0,0,0,0,0,0,0,0,0,0,0,0,0,0,0,0,0,0,0,0,0,0,0,0,0,0,0,0,0,0,0,0,-0.029,-0.029,0,-0.0352,-0.0353,-0.0354,-0.0405,-0.0405,-0.0405,-0.0406,-0.0515,-0.0518,-0.052,0,0,0,0,0,0,0,0,0,0,0,0,0,-0.0264,-0.0264,-0.029,-0.029,-0.0291,-0.0352,-0.0353,-0.0354,-0.0405,-0.0405,-0.0405,-0.0406,-0.0514,-0.0517,-0.0521,0,0,0,0,0,0,0,0,0,0,0,0,0,-0.0297,-0.0264,-0.029,-0.0322,-0.0325,-0.0351,-0.0353,-0.0354,-0.0405,-0.0405,-0.0406,-0.0406,-0.0513,-0.0517,-0.0521,-0.0536,0,0,-0.0533,-0.0535,0,0,0,0,0,0,0,0,-0.0295,-0.0299,-0.0317,-0.032,-0.0323,-0.0369,-0.0383,-0.0416,-0.0404,-0.0377,-0.0406,-0.0406,-0.0469,-0.0476,-0.049,-0.0541,-0.0545,-0.0533,-0.0536,-0.0537,-0.0538,0,0,0,0,0,0,0,-0.0293,-0.0297,-0.0317,-0.0317,-0.0321,-0.0349,-0.0355,-0.039,-0.0422,-0.0379,-0.0383,-0.0385,-0.0471,-0.0486,-0.0493,-0.0547,-0.0533,-0.0537,-0.0539,-0.0541,-0.0628,-0.0628,0,0,0,0,0,0,-0.0277,-0.0294,-0.0315,-0.0318,-0.0308,-0.0349,-0.0355,-0.0356,-0.0421,-0.043,-0.0385,-0.0388,-0.0479,-0.0488,-0.0497,-0.0538,-0.0537,-0.0541,-0.0543,-0.0628,-0.0628,-0.0628,0,0,0,0,0,0,-0.0276,-0.0278,-0.0312,-0.0306,-0.0312,-0.0348,-0.0349,-0.0357,-0.037,-0.0424,-0.0435,-0.039,-0.048,-0.0491,-0.0525,-0.0541,-0.0543,-0.0546,-0.0628,-0.0628,-0.0628,-0.0607,0,0,0,0,0,0,-0.0275,-0.0278,-0.0274,-0.0305,-0.0312,-0.0325,-0.0349,-0.0357,-0.037,-0.0374,-0.0432,-0.0443,-0.0481,-0.0519,-0.0529,-0.0547,-0.0549,-0.0628,-0.0628,-0.0628,-0.0607,-0.0606,-0.0605,0,0,0,0,0,-0.0274,-0.0265,-0.0274,-0.0276,-0.0305,-0.0324,-0.0331,-0.036,-0.0369,-0.0374,-0.0411,-0.0441,-0.0526,-0.0522,-0.0534,-0.0553,-0.0629,-0.0628,-0.0628,-0.0608,-0.0606,-0.0605,0,0,0,0,0,0,-0.025,-0.027,-0.028,-0.0277,-0.0297,-0.0332,-0.0336,-0.0353,-0.0386,-0.039,-0.044,-0.0454,-0.049,-0.0517,-0.0511,-0.0576,-0.0583,-0.0585,-0.0563,-0.0562,-0.056,-0.057,-0.0553,0,0,0,0,0,-0.0241,-0.0241,-0.0266,-0.0263,-0.0269,-0.03,-0.0311,-0.033,-0.0361,-0.0375,-0.0415,-0.0457,-0.0498,-0.0525,-0.056,-0.0596,-0.0623,-0.0615,-0.0613,-0.0612,-0.0626,-0.0676,-0.068,-0.0628,-0.0628,-0.0628,0,0,-0.0231,-0.0241,-0.0242,-0.0258,-0.0275,-0.0288,-0.0309,-0.032,-0.0338,-0.0382,-0.0416,-0.045,-0.0503,-0.0544,-0.0564,-0.0572,-0.0635,-0.0612,-0.0611,-0.0626,-0.0676,-0.0681,-0.0686,-0.0628,-0.0628,-0.0628,0,0,-0.0213,-0.0218,-0.0216,-0.023,-0.025,-0.0271,-0.027,-0.0302,-0.0324,-0.0355,-0.0394,-0.0438,-0.0491,-0.0543,-0.0574,-0.0585,-0.0621,-0.059,-0.0603,-0.065,-0.0655,-0.066,-0.0677,-0.0684,-0.0597,-0.0597,-0.0597,0,-0.0201,-0.02,-0.0218,-0.0223,-0.023,-0.026,-0.0262,-0.0292,-0.0333,-0.0353,-0.036,-0.0458,-0.0498,-0.057,-0.0577,-0.0587,-0.0605,-0.0606,-0.0649,-0.0655,-0.066,-0.0678,-0.0685,-0.0596,-0.0596,-0.0596,-0.0596,0,-0.0188,-0.0188,-0.0185,-0.0203,-0.0216,-0.0218,-0.0255,-0.0274,-0.0298,-0.0334,-0.0395,-0.0457,-0.0514,-0.0538,-0.0566,-0.063,-0.0625,-0.0635,-0.0655,-0.0664,-0.0681,-0.069,-0.0594,-0.0595,-0.0595,-0.0595,0,0,-0.0155,-0.0173,-0.0171,-0.017,-0.0201,-0.0204,-0.0236,-0.0272,-0.0282,-0.035,-0.0377,-0.0477,-0.0508,-0.0546,-0.0592,-0.065,-0.0697,-0.066,-0.0663,-0.0679,-0.0779,-0.0704,-0.0706,-0.0713,-0.0715,-0.0717,-0.0767,0,-0.0138,-0.0131,-0.0153,-0.0148,-0.0143,-0.018,-0.0196,-0.0237,-0.0275,-0.0307,-0.0404,-0.0441,-0.0512,-0.0525,-0.0604,-0.0662,-0.0722,-0.0681,-0.0767,-0.0769,-0.0704,-0.0715,-0.0649,-0.0682,-0.0775,-0.0777,-0.0778,0,-0.0118,-0.0113,-0.0098,-0.0102,-0.0102,-0.0107,-0.0126,-0.0147,-0.0215,-0.0244,-0.0329,-0.0383,-0.0488,-0.0526,-0.0684,-0.065,-0.072,-0.0778,-0.0781,-0.0731,-0.0711,-0.0693,-0.0695,-0.0873,-0.0791,-0.079,-0.0789,0,-0.0067,-0.0074,-0.0052,-0.0055,-0.0068,-0.0068,-0.0078,-0.0127,-0.0118,-0.0198,-0.0191,-0.0343,-0.0363,-0.0519,-0.0636,-0.066,-0.078,-0.0821,-0.0831,-0.0825,-0.0798,-0.0785,-0.0987,-0.0939,-0.0939,-0.0939,-0.0939,0,-0.0031,-0.0013,-0.0022,-0.0005,0.0035,-0.0007,0.0026,-0.0008,-0.0031,0.0015,-0.0145,-0.0128,-0.0358,-0.0445,-0.0606,-0.0721,-0.0757,-0.0838,-0.0841,-0.0782,-0.0769,-0.0944,-0.1054,-0.0941,-0.0941,-0.094,-0.094,0,0.0031,0.002,0.0055,0.0056,0.0067,0.0098,0.0128,0.0156,0.0111,0.017,0.0162,0.0049,-0.0045,-0.0264,-0.0463,-0.0622,-0.0856,-0.0807,-0.0704,-0.0693,-0.0878,-0.0987,-0.1184,-0.1254,-0.0852,-0.085,-0.0849,0,0.0064,0.0088,0.0126,0.0171,0.0181,0.0221,0.0269,0.024,0.0291,0.0309,0.0364,0.0287,0.0296,0.0006,-0.0279,-0.0538,-0.0753,-0.0681,-0.0736,-0.0885,-0.101,-0.11,-0.1153,-0.0689,-0.0686,-0.0684,-0.0683,0,0.0137,0.0154,0.0192,0.029,0.0351,0.042,0.0485,0.0557,0.0571,0.0646,0.0753,0.0763,0.0518,0.0304,-0.0068,-0.028,-0.0787,-0.0645,-0.0851,-0.0943,-0.1008,-0.1073,-0.0646,-0.0665,-0.0667,-0.0668,-0.0669,-0.067,0.0207,0.0259,0.0325,0.0426,0.0506,0.063,0.073,0.083,0.0978,0.1139,0.1101,0.1178,0.0788,0.0312,-0.0004,-0.0563,-0.0616,-0.0756,-0.0886,-0.0971,-0.102,-0.0527,-0.0511,-0.0512,-0.0513,-0.0514,-0.0514,0,0.0307,0.0368,0.0461,0.0589,0.0716,0.0726,0.0895,0.1027,0.1269,0.141,0.154,0.1407,0.0949,0.0391,-0.0343,-0.0745,-0.0938,-0.0999,-0.1161,-0.1213,-0.0815,-0.0788,-0.0768,-0.0768,-0.0767,-0.0767,-0.0767,-0.0767,0.0367,0.0483,0.0535,0.0763,0.0861,0.1053,0.1174,0.1381,0.1527,0.176,0.1818,0.1806,0.1365,0.0032,-0.0877,-0.1093,-0.1429,-0.1463,-0.1654,-0.143,-0.142,-0.1409,-0.1412,-0.1523,-0.1524,-0.1982,-0.1987,-0.1991]}],[{"header":{"parameterUnit":"m.s-1","parameterCategory":2,"la1":30.2991,"la2":30.254,"lo1":-89.0895,"lo2":-89.0444,"dy":0.0017,"dx":0.0017,"nx":28,"ny":28,"refTime":"2025-11-23T09:00:00:Z","depth":"2","parameterNumber":2,"parameterNumberName":"U-component_of_CURRENTS"},"data":[0,0,0,0,0,0,0,0,0,0,0,0,0,0,0,0,0,0,0,0,0,0,0,0,0,0,0,0,0,0,0,0,0,0,0,0,0,0,0,0,0,0,0,0,0,0,0,0,0,0,0,0,0,0,0,0,0,0,0.2295,0.2296,0,0.2336,0.2337,0.2337,0.2339,0.2339,0.2339,0.2339,0.2375,0.2376,0.2377,0,0,0,0,0,0,0,0,0,0,0,0,0,0.2223,0.2223,0.2295,0.2296,0.2297,0.2336,0.2337,0.2337,0.2339,0.2339,0.2339,0.2339,0.2375,0.2376,0.2377,0,0,0,0,0,0,0,0,0,0,0,0,0,0.2254,0.2224,0.2295,0.2306,0.2307,0.2336,0.2337,0.2337,0.2339,0.2339,0.2339,0.2339,0.2374,0.2376,0.2377,0.2391,0,0,0.2382,0.2383,0,0,0,0,0,0,0,0,0.2252,0.2256,0.2303,0.2305,0.2307,0.2336,0.2325,0.2356,0.2339,0.2323,0.2339,0.2339,0.2364,0.2366,0.2369,0.2392,0.2394,0.2382,0.2383,0.2384,0.2384,0,0,0,0,0,0,0,0.225,0.2255,0.2307,0.2304,0.2306,0.231,0.2314,0.233,0.2341,0.2324,0.2326,0.2337,0.2364,0.2368,0.237,0.2394,0.2382,0.2384,0.2385,0.2385,0.2458,0.2459,0,0,0,0,0,0,0.2253,0.2253,0.2306,0.2309,0.2283,0.2312,0.2316,0.2324,0.2341,0.2345,0.2337,0.2337,0.2365,0.2368,0.2371,0.2446,0.2384,0.2385,0.2386,0.2457,0.2458,0.2459,0,0,0,0,0,0,0.2251,0.2257,0.2305,0.2285,0.2292,0.2314,0.2322,0.2325,0.2337,0.2351,0.2354,0.2348,0.2365,0.2369,0.2396,0.2445,0.2386,0.2388,0.2456,0.2457,0.2458,0.2558,0,0,0,0,0,0,0.2249,0.2256,0.2264,0.2285,0.2293,0.2328,0.2323,0.2326,0.2346,0.2346,0.2362,0.2364,0.2365,0.2394,0.2398,0.2446,0.2389,0.2454,0.2456,0.2458,0.2553,0.2562,0.257,0,0,0,0,0,0.2246,0.2259,0.2264,0.2271,0.2303,0.2329,0.2333,0.2345,0.2347,0.2355,0.2368,0.2364,0.2408,0.2396,0.24,0.245,0.2453,0.2456,0.2458,0.2549,0.256,0.257,0,0,0,0,0,0,0.2228,0.2262,0.2267,0.2289,0.2311,0.2331,0.2345,0.2353,0.2369,0.2374,0.2378,0.2381,0.2424,0.2414,0.2401,0.2472,0.243,0.2433,0.2498,0.2509,0.2517,0.2514,0.239,0,0,0,0,0,0.223,0.225,0.2278,0.2295,0.2308,0.2327,0.2341,0.2354,0.2372,0.2379,0.2396,0.2412,0.2435,0.2452,0.2464,0.2505,0.2512,0.2537,0.2545,0.2553,0.2552,0.2611,0.2626,0.2466,0.2466,0.2466,0,0,0.2228,0.225,0.2261,0.2294,0.231,0.2344,0.2334,0.2364,0.2401,0.2382,0.2436,0.2442,0.2449,0.2497,0.2515,0.2499,0.2603,0.2556,0.2562,0.2557,0.2615,0.2631,0.2646,0.2467,0.2467,0.2467,0,0,0.2241,0.2254,0.228,0.2307,0.2344,0.2359,0.2371,0.2405,0.2429,0.247,0.2476,0.2506,0.2535,0.2562,0.2574,0.2632,0.2642,0.2641,0.2695,0.2754,0.2769,0.2781,0.2821,0.2837,0.2652,0.2652,0.2652,0,0.2238,0.2274,0.229,0.2329,0.2357,0.237,0.2407,0.2438,0.2481,0.2514,0.2495,0.257,0.2567,0.2648,0.266,0.2656,0.2684,0.2663,0.2769,0.2781,0.2793,0.283,0.2846,0.2657,0.2657,0.2656,0.2656,0,0.2277,0.231,0.2329,0.2382,0.2412,0.2445,0.2491,0.2535,0.2556,0.2586,0.2661,0.2669,0.2718,0.2724,0.2704,0.2797,0.279,0.2773,0.275,0.2815,0.285,0.2865,0.2664,0.2663,0.2661,0.266,0,0,0.2259,0.2338,0.2346,0.2381,0.2444,0.2471,0.2548,0.2614,0.2671,0.2714,0.2794,0.2825,0.2839,0.2852,0.286,0.2894,0.2986,0.2868,0.2869,0.292,0.3121,0.305,0.3059,0.3004,0.3007,0.3009,0.3118,0,0.2282,0.2359,0.2392,0.2462,0.2507,0.2553,0.2615,0.2683,0.2738,0.2819,0.2861,0.2922,0.2892,0.2924,0.2967,0.2976,0.3028,0.2958,0.3038,0.3039,0.298,0.3074,0.2839,0.2911,0.3132,0.3134,0.3136,0,0.2307,0.2363,0.2432,0.2515,0.2535,0.258,0.2687,0.2742,0.2859,0.2908,0.3001,0.3032,0.3115,0.3063,0.316,0.3124,0.3133,0.3128,0.3133,0.3039,0.2996,0.2877,0.2928,0.316,0.3158,0.3156,0.3155,0,0.2288,0.2384,0.2435,0.2467,0.2563,0.2613,0.2665,0.2775,0.2828,0.2979,0.3031,0.3151,0.3199,0.3253,0.3254,0.3225,0.3335,0.33,0.3253,0.3248,0.3044,0.3016,0.3374,0.3374,0.3374,0.3373,0.3373,0,0.2293,0.2336,0.2437,0.2467,0.253,0.2612,0.2682,0.2767,0.2889,0.2949,0.3075,0.3142,0.3244,0.3313,0.3317,0.3338,0.3406,0.3281,0.3283,0.3071,0.3045,0.3244,0.3228,0.3377,0.3376,0.3376,0.3375,0,0.2247,0.2313,0.237,0.248,0.2515,0.2559,0.2661,0.2717,0.2849,0.2946,0.2995,0.3156,0.3244,0.3331,0.3409,0.3399,0.3429,0.3416,0.3153,0.3121,0.3288,0.3275,0.3394,0.3393,0.3392,0.3391,0.339,0,0.2217,0.2253,0.2347,0.2372,0.2417,0.2496,0.254,0.268,0.2737,0.2924,0.2957,0.3108,0.3176,0.33,0.332,0.3375,0.341,0.3173,0.3065,0.3306,0.3297,0.3285,0.3274,0.2841,0.2835,0.2831,0.2828,0,0.2159,0.2192,0.2222,0.2289,0.2339,0.2381,0.2466,0.2509,0.2663,0.2749,0.285,0.2931,0.3079,0.3037,0.3136,0.3121,0.3151,0.3086,0.3437,0.2865,0.2792,0.2779,0.2786,0.279,0.2793,0.2796,0.2798,0.28,0.2082,0.2087,0.2136,0.2177,0.2222,0.2256,0.226,0.2356,0.2415,0.2526,0.266,0.2712,0.281,0.283,0.278,0.2762,0.296,0.2843,0.2853,0.2869,0.2779,0.2707,0.2672,0.2675,0.2677,0.268,0.2682,0,0.1994,0.2014,0.2037,0.2065,0.2055,0.214,0.2187,0.2169,0.2192,0.2334,0.2405,0.2288,0.2308,0.2395,0.2323,0.2361,0.2309,0.226,0.2169,0.2212,0.2248,0.2122,0.1843,0.1839,0.1836,0.1834,0,0,0.1946,0.1924,0.1937,0.1888,0.1916,0.1894,0.19,0.1891,0.195,0.1957,0.1992,0.2204,0.2334,0.2047,0.2043,0.1923,0.2036,0.1851,0.2535,0.247,0.2501,0.261,0.2468,0,0,0,0,0]},{"header":{"parameterUnit":"m.s-1","parameterCategory":2,"la1":30.2991,"la2":30.254,"lo1":-89.0895,"lo2":-89.0444,"dy":0.0017,"dx":0.0017,"nx":28,"ny":28,"refTime":"2025-11-23T09:00:00:Z","depth":"2","parameterNumber":3,"parameterNumberName":"V-component_of_CURRENTS"},"data":[0,0,0,0,0,0,0,0,0,0,0,0,0,0,0,0,0,0,0,0,0,0,0,0,0,0,0,0,0,0,0,0,0,0,0,0,0,0,0,0,0,0,0,0,0,0,0,0,0,0,0,0,0,0,0,0,0,0,0.0022,0.0022,0,-0.0033,-0.0034,-0.0035,-0.0075,-0.0075,-0.0075,-0.0076,-0.0167,-0.0169,-0.0171,0,0,0,0,0,0,0,0,0,0,0,0,0,0.0038,0.0039,0.0022,0.0022,0.0021,-0.0033,-0.0034,-0.0035,-0.0075,-0.0075,-0.0075,-0.0076,-0.0166,-0.0169,-0.0171,0,0,0,0,0,0,0,0,0,0,0,0,0,0.0011,0.0039,0.0022,-0.0005,-0.0007,-0.0033,-0.0034,-0.0035,-0.0075,-0.0075,-0.0075,-0.0076,-0.0165,-0.0168,-0.0172,-0.0186,0,0,-0.0182,-0.0183,0,0,0,0,0,0,0,0,0.0013,0.001,-0.0,-0.0003,-0.0006,-0.0046,-0.0062,-0.0087,-0.0075,-0.0051,-0.0076,-0.0076,-0.0129,-0.0135,-0.0146,-0.019,-0.0194,-0.0182,-0.0184,-0.0186,-0.0187,0,0,0,0,0,0,0,0.0015,0.0012,-0.0001,-0.0001,-0.0004,-0.0032,-0.0036,-0.0067,-0.0089,-0.0053,-0.0055,-0.0059,-0.0131,-0.0143,-0.0149,-0.0195,-0.0182,-0.0185,-0.0187,-0.0188,-0.0257,-0.0257,0,0,0,0,0,0,0.0027,0.0014,0.0001,-0.0003,0.0004,-0.0032,-0.0037,-0.0034,-0.0088,-0.0096,-0.0059,-0.0061,-0.0137,-0.0145,-0.0152,-0.0173,-0.0186,-0.0189,-0.0191,-0.0257,-0.0257,-0.0257,0,0,0,0,0,0,0.0028,0.0027,0.0003,0.0005,0.0,-0.0031,-0.0029,-0.0035,-0.0046,-0.0092,-0.0101,-0.0064,-0.0137,-0.0147,-0.0172,-0.0177,-0.019,-0.0193,-0.0257,-0.0257,-0.0257,-0.0214,0,0,0,0,0,0,0.0029,0.0028,0.0032,0.0006,0.0001,-0.0003,-0.0029,-0.0036,-0.0048,-0.0051,-0.0099,-0.0108,-0.0138,-0.0167,-0.0176,-0.0182,-0.0196,-0.0257,-0.0257,-0.0257,-0.0216,-0.0212,-0.021,0,0,0,0,0,0.003,0.0044,0.0032,0.0031,0.0008,-0.0002,-0.0007,-0.0033,-0.0047,-0.0046,-0.0079,-0.0106,-0.0171,-0.0169,-0.018,-0.0187,-0.0258,-0.0257,-0.0257,-0.0217,-0.0213,-0.021,0,0,0,0,0,0,0.0053,0.004,0.0027,0.0036,0.0021,-0.0008,-0.0009,-0.0028,-0.0053,-0.0058,-0.0103,-0.0114,-0.0138,-0.0165,-0.0162,-0.0204,-0.0219,-0.0221,-0.0186,-0.0183,-0.0179,-0.0133,-0.0199,0,0,0,0,0,0.0061,0.0067,0.0047,0.0053,0.0049,0.0019,0.0011,-0.0006,-0.003,-0.0042,-0.0077,-0.0114,-0.0145,-0.0164,-0.0193,-0.0216,-0.0239,-0.0227,-0.0224,-0.0221,-0.019,-0.0253,-0.0253,-0.0255,-0.0255,-0.0255,0,0,0.007,0.0064,0.0067,0.0058,0.0043,0.0047,0.0013,0.0007,0.0009,-0.0048,-0.006,-0.0103,-0.0147,-0.0172,-0.0186,-0.0195,-0.0231,-0.0221,-0.0218,-0.0187,-0.0253,-0.0253,-0.0253,-0.0255,-0.0255,-0.0255,0,0,0.0101,0.0089,0.0107,0.0097,0.0083,0.0067,0.0069,0.0042,0.0029,0.001,-0.0031,-0.0062,-0.0117,-0.0142,-0.0164,-0.0158,-0.0212,-0.0186,-0.0137,-0.02,-0.02,-0.02,-0.0222,-0.0224,-0.0187,-0.0187,-0.0187,0,0.0113,0.0134,0.011,0.0122,0.0121,0.0082,0.0101,0.0083,0.0049,0.0047,0.0016,-0.0063,-0.0094,-0.0125,-0.0116,-0.0148,-0.0188,-0.015,-0.0196,-0.0197,-0.0198,-0.022,-0.0223,-0.0185,-0.0185,-0.0185,-0.0185,0,0.0157,0.0169,0.0179,0.0183,0.0178,0.0187,0.0162,0.0153,0.0126,0.0107,0.0068,0.0005,-0.0042,-0.0064,-0.0083,-0.0112,-0.0137,-0.0185,-0.0203,-0.0195,-0.0218,-0.0223,-0.0182,-0.0183,-0.0183,-0.0184,0,0,0.02,0.0211,0.0214,0.0228,0.0213,0.0218,0.022,0.0221,0.0232,0.0168,0.0164,0.0104,0.0052,0.0027,-0.0034,-0.007,-0.0102,-0.0121,-0.0126,-0.0136,-0.0225,-0.0229,-0.0235,-0.0182,-0.0183,-0.0184,-0.0235,0,0.0245,0.0289,0.0278,0.0315,0.0335,0.0303,0.0318,0.0307,0.0279,0.0264,0.0186,0.0155,0.0084,0.0053,-0.0004,-0.0072,-0.0113,-0.0081,-0.0234,-0.0237,-0.0239,-0.024,-0.0219,-0.0263,-0.024,-0.0241,-0.0241,0,0.0295,0.0318,0.0367,0.0393,0.0401,0.0409,0.0422,0.0427,0.0397,0.0372,0.03,0.0235,0.0173,0.0104,-0.0034,-0.0023,-0.0107,-0.0164,-0.017,-0.0184,-0.0249,-0.027,-0.0272,-0.0249,-0.0248,-0.0248,-0.0247,0,0.0347,0.0381,0.0427,0.0432,0.0452,0.0464,0.0468,0.0458,0.0486,0.0428,0.0432,0.0308,0.0264,0.0117,-0.0008,-0.0034,-0.0146,-0.0211,-0.0293,-0.0294,-0.0303,-0.0303,-0.0303,-0.0302,-0.0302,-0.0302,-0.0302,0,0.0404,0.0437,0.0451,0.0475,0.0533,0.0513,0.0566,0.0553,0.0554,0.0601,0.0475,0.0471,0.0265,0.0169,0.0021,-0.0137,-0.0146,-0.0263,-0.031,-0.0286,-0.0285,-0.0296,-0.0295,-0.0304,-0.0304,-0.0303,-0.0303,0,0.0452,0.0465,0.052,0.0549,0.056,0.0593,0.064,0.068,0.0662,0.0707,0.0696,0.0607,0.0475,0.0279,0.0082,-0.0072,-0.0233,-0.0288,-0.0218,-0.0257,-0.0344,-0.034,-0.0393,-0.0394,-0.0394,-0.0395,-0.0395,0,0.0488,0.0517,0.0575,0.0613,0.0624,0.0669,0.0716,0.0728,0.0777,0.0798,0.0832,0.0735,0.0669,0.0374,0.01,-0.0166,-0.0208,-0.0313,-0.0358,-0.0313,-0.0355,-0.035,-0.0345,-0.0352,-0.0352,-0.0352,-0.0352,0,0.0544,0.0558,0.0609,0.0686,0.0736,0.0811,0.0866,0.093,0.096,0.0996,0.1029,0.0984,0.0717,0.0451,0.0099,-0.0086,-0.0277,-0.0321,-0.0312,-0.0328,-0.0278,-0.0318,-0.0314,-0.0352,-0.0352,-0.0352,-0.0352,-0.0352,0.0587,0.063,0.0689,0.0764,0.0836,0.0927,0.0992,0.1064,0.1154,0.121,0.1175,0.1108,0.0825,0.0367,0.006,-0.0264,-0.0261,-0.0386,-0.0384,-0.0384,-0.0365,-0.032,-0.0394,-0.0395,-0.0395,-0.0395,-0.0395,0,0.0623,0.0673,0.0754,0.0849,0.0934,0.0961,0.1085,0.1142,0.1241,0.1302,0.131,0.104,0.0747,0.042,-0.0055,-0.0341,-0.0373,-0.0432,-0.041,-0.0408,-0.0406,-0.0389,-0.0425,-0.0426,-0.0427,-0.0427,0,0,0.0644,0.0723,0.0766,0.0905,0.0976,0.1092,0.1166,0.1242,0.1305,0.1343,0.132,0.1251,0.0857,0.0513,0.0123,-0.0149,-0.0214,-0.0207,-0.0153,-0.0079,-0.0074,-0.0351,-0.0318,0,0,0,0,0]}],[{"header":{"parameterUnit":"m.s-1","parameterCategory":2,"la1":30.2991,"la2":30.254,"lo1":-89.0895,"lo2":-89.0444,"dy":0.0017,"dx":0.0017,"nx":28,"ny":28,"refTime":"2025-11-23T09:00:00:Z","depth":"4","parameterNumber":2,"parameterNumberName":"U-component_of_CURRENTS"},"data":[0,0,0,0,0,0,0,0,0,0,0,0,0,0,0,0,0,0,0,0,0,0,0,0,0,0,0,0,0,0,0,0,0,0,0,0,0,0,0,0,0,0,0,0,0,0,0,0,0,0,0,0,0,0,0,0,0,0,0.1424,0.1424,0,0.1483,0.1484,0.1484,0.1538,0.1539,0.154,0.1541,0.1606,0.1606,0.1607,0,0,0,0,0,0,0,0,0,0,0,0,0,0.135,0.1351,0.1423,0.1424,0.1425,0.1483,0.1484,0.1484,0.1538,0.1539,0.154,0.1541,0.1605,0.1606,0.1608,0,0,0,0,0,0,0,0,0,0,0,0,0,0.1391,0.1351,0.1423,0.146,0.1464,0.1483,0.1484,0.1485,0.1538,0.1539,0.1541,0.1542,0.1605,0.1606,0.1608,0.1593,0,0,0.1612,0.1613,0,0,0,0,0,0,0,0,0.1389,0.1394,0.1454,0.1458,0.1462,0.1506,0.1482,0.1522,0.1538,0.1508,0.1541,0.1542,0.1573,0.1577,0.1583,0.1596,0.1598,0.1612,0.1613,0.1614,0.1614,0,0,0,0,0,0,0,0.1386,0.1392,0.1445,0.1455,0.146,0.1472,0.1479,0.1489,0.1532,0.1511,0.1516,0.1524,0.1575,0.1582,0.1585,0.1599,0.1612,0.1614,0.1614,0.1615,0.1703,0.1705,0,0,0,0,0,0,0.1381,0.1389,0.1444,0.1447,0.143,0.1472,0.148,0.1489,0.1532,0.154,0.1523,0.1527,0.1579,0.1583,0.1588,0.1654,0.1614,0.1615,0.1616,0.1702,0.1704,0.1705,0,0,0,0,0,0,0.1379,0.1385,0.1441,0.1421,0.1429,0.1473,0.1482,0.149,0.1531,0.1542,0.155,0.156,0.158,0.1586,0.1626,0.1654,0.1616,0.1617,0.17,0.1702,0.1704,0.1735,0,0,0,0,0,0,0.1377,0.1384,0.1404,0.142,0.143,0.1472,0.1482,0.149,0.1533,0.1539,0.1575,0.1581,0.1581,0.1624,0.1628,0.1656,0.1618,0.1698,0.1701,0.1704,0.1732,0.1738,0.1743,0,0,0,0,0,0.1374,0.1387,0.1404,0.1412,0.145,0.1473,0.148,0.1513,0.1534,0.1554,0.1582,0.1581,0.1645,0.1626,0.163,0.1659,0.1697,0.17,0.1703,0.173,0.1737,0.1743,0,0,0,0,0,0,0.1363,0.1394,0.1413,0.1436,0.1465,0.1484,0.1508,0.153,0.1568,0.1584,0.1595,0.1602,0.1649,0.1651,0.1631,0.1695,0.1673,0.1677,0.1692,0.1698,0.1704,0.1706,0.162,0,0,0,0,0,0.137,0.1392,0.142,0.1442,0.1459,0.1491,0.1511,0.1536,0.1563,0.1583,0.1606,0.1635,0.1659,0.1678,0.1696,0.1727,0.1739,0.1751,0.1756,0.1761,0.1767,0.1811,0.1821,0.1716,0.1716,0.1716,0,0,0.1372,0.1393,0.1407,0.1443,0.1469,0.1493,0.1507,0.1546,0.1574,0.1582,0.1634,0.1656,0.1672,0.1709,0.1731,0.1719,0.1798,0.1765,0.1768,0.1772,0.1815,0.1826,0.1834,0.1718,0.1718,0.1717,0,0,0.1373,0.1408,0.1424,0.1451,0.1496,0.1516,0.1535,0.1574,0.1605,0.1647,0.1666,0.1705,0.1739,0.1757,0.1768,0.1815,0.1825,0.1831,0.1859,0.1902,0.1911,0.1919,0.1947,0.1957,0.1833,0.1833,0.1833,0,0.1378,0.1399,0.1433,0.1454,0.1482,0.1529,0.1554,0.1586,0.1636,0.1662,0.1672,0.1743,0.1758,0.1803,0.1824,0.1827,0.1853,0.1829,0.1909,0.1917,0.1924,0.1951,0.1962,0.1835,0.1835,0.1834,0.1834,0,0.1378,0.1412,0.1425,0.1469,0.1505,0.1535,0.1583,0.1626,0.167,0.1698,0.1764,0.1789,0.1831,0.1846,0.185,0.1916,0.1917,0.1909,0.1888,0.1936,0.1962,0.1972,0.1837,0.1837,0.1836,0.1836,0,0,0.1344,0.1412,0.1419,0.1451,0.1519,0.1545,0.1601,0.1657,0.1703,0.1753,0.1808,0.1853,0.1881,0.1897,0.1917,0.1956,0.2029,0.1964,0.1965,0.1985,0.2128,0.2014,0.2015,0.2044,0.2046,0.2047,0.2123,0,0.1338,0.1372,0.1416,0.147,0.1496,0.1565,0.1613,0.1675,0.1733,0.1797,0.1841,0.1905,0.1897,0.194,0.1973,0.2026,0.206,0.2009,0.2084,0.2086,0.1974,0.2024,0.2054,0.2131,0.2134,0.2135,0.2137,0,0.132,0.1349,0.1392,0.1478,0.1499,0.1545,0.1642,0.1698,0.1791,0.1836,0.1901,0.1948,0.2025,0.2013,0.2107,0.2083,0.211,0.2135,0.2139,0.2029,0.1992,0.2075,0.2156,0.2154,0.2153,0.2152,0.215,0,0.1269,0.1338,0.1375,0.1401,0.1497,0.1546,0.1615,0.1713,0.1773,0.1886,0.1942,0.2018,0.2088,0.2134,0.2191,0.2169,0.2288,0.2256,0.217,0.2163,0.2227,0.2218,0.2314,0.2314,0.2314,0.2314,0.2314,0,0.1236,0.127,0.136,0.138,0.1444,0.1533,0.1622,0.1695,0.1808,0.188,0.1974,0.2035,0.213,0.2204,0.2225,0.2234,0.2315,0.2184,0.2178,0.2238,0.223,0.2235,0.2224,0.2317,0.2316,0.2315,0.2315,0,0.1177,0.1231,0.1282,0.1384,0.1425,0.1481,0.1631,0.1683,0.1809,0.1911,0.196,0.2085,0.2181,0.2252,0.2342,0.2275,0.2298,0.2278,0.235,0.2346,0.2132,0.2123,0.2179,0.2175,0.2173,0.217,0.2168,0,0.1143,0.1162,0.1274,0.131,0.1366,0.1465,0.1525,0.1666,0.1728,0.192,0.1952,0.2104,0.2171,0.2197,0.2276,0.2307,0.228,0.2264,0.2176,0.2132,0.2121,0.2116,0.2111,0.2164,0.2163,0.2162,0.2162,0,0.1081,0.1135,0.1179,0.1253,0.1323,0.1391,0.1499,0.1534,0.1697,0.1824,0.1906,0.1968,0.207,0.2125,0.2175,0.2187,0.2257,0.2234,0.2238,0.2156,0.2115,0.2106,0.2104,0.2152,0.2153,0.2154,0.2155,0,0.1041,0.1058,0.1127,0.1189,0.1266,0.1303,0.1368,0.1448,0.1532,0.1739,0.1762,0.1919,0.2048,0.2065,0.2109,0.212,0.2078,0.1989,0.2006,0.2017,0.193,0.1852,0.1811,0,0,0,0,0,0.0994,0.1008,0.1056,0.1117,0.1187,0.1235,0.1341,0.1406,0.1563,0.1577,0.1669,0.1757,0.1836,0.1913,0.1893,0.2039,0.2084,0.2005,0.1988,0.2098,0.211,0.2022,0,0,0,0,0,0,0.0961,0.1001,0.1027,0.1046,0.1073,0.1136,0.1197,0.1293,0.1313,0.1478,0.153,0.1653,0.1755,0.1838,0.1862,0.1886,0.1839,0.2104,0.21,0.2092,0.2102,0.2111,0.2025,0,0,0,0,0]},{"header":{"parameterUnit":"m.s-1","parameterCategory":2,"la1":30.2991,"la2":30.254,"lo1":-89.0895,"lo2":-89.0444,"dy":0.0017,"dx":0.0017,"nx":28,"ny":28,"refTime":"2025-11-23T09:00:00:Z","depth":"4","parameterNumber":3,"parameterNumberName":"V-component_of_CURRENTS"},"data":[0,0,0,0,0,0,0,0,0,0,0,0,0,0,0,0,0,0,0,0,0,0,0,0,0,0,0,0,0,0,0,0,0,0,0,0,0,0,0,0,0,0,0,0,0,0,0,0,0,0,0,0,0,0,0,0,0,0,0.0099,0.0099,0,0.0062,0.0061,0.0061,0.0033,0.0033,0.0033,0.0033,-0.0021,-0.0023,-0.0024,0,0,0,0,0,0,0,0,0,0,0,0,0,0.0106,0.0107,0.0099,0.0099,0.0098,0.0062,0.0061,0.006,0.0033,0.0033,0.0033,0.0033,-0.0021,-0.0023,-0.0024,0,0,0,0,0,0,0,0,0,0,0,0,0,0.0089,0.0107,0.0099,0.0081,0.0079,0.0062,0.0061,0.006,0.0033,0.0033,0.0033,0.0033,-0.0021,-0.0022,-0.0024,-0.0033,0,0,-0.0031,-0.0031,0,0,0,0,0,0,0,0,0.009,0.0088,0.0084,0.0082,0.008,0.0053,0.0044,0.0029,0.0033,0.005,0.0033,0.0033,0.0003,-0.0001,-0.0009,-0.0035,-0.0038,-0.0031,-0.0032,-0.0033,-0.0033,0,0,0,0,0,0,0,0.0091,0.0089,0.0083,0.0084,0.0081,0.0061,0.0059,0.0041,0.0027,0.0048,0.0046,0.0044,0.0001,-0.0007,-0.0011,-0.0038,-0.0031,-0.0032,-0.0034,-0.0034,-0.0073,-0.0073,0,0,0,0,0,0,0.01,0.0091,0.0084,0.0082,0.0086,0.0062,0.0059,0.0061,0.0027,0.0022,0.0044,0.0043,-0.0004,-0.0008,-0.0013,0.0001,-0.0033,-0.0035,-0.0036,-0.0073,-0.0073,-0.0073,0,0,0,0,0,0,0.0101,0.01,0.0086,0.0086,0.0083,0.0062,0.0065,0.006,0.0054,0.0024,0.0019,0.0042,-0.0004,-0.001,-0.0023,-0.0002,-0.0035,-0.0037,-0.0074,-0.0073,-0.0073,0.0012,0,0,0,0,0,0,0.0101,0.0101,0.0105,0.0087,0.0083,0.0086,0.0065,0.006,0.0053,0.0051,0.0021,0.0015,-0.0005,-0.0019,-0.0024,-0.0006,-0.0039,-0.0074,-0.0073,-0.0073,0.0009,0.0015,0.002,0,0,0,0,0,0.0102,0.0115,0.0105,0.0104,0.009,0.0086,0.0083,0.0066,0.0053,0.0057,0.0035,0.0017,-0.0021,-0.0021,-0.0027,-0.0008,-0.0074,-0.0073,-0.0073,0.0006,0.0013,0.002,0,0,0,0,0,0,0.012,0.0113,0.0102,0.0112,0.0102,0.0082,0.0084,0.0069,0.0054,0.0051,0.002,0.0014,0.0008,-0.0016,-0.0015,-0.0021,-0.0051,-0.0052,0.0011,0.0017,0.0023,0.0048,-0.0041,0,0,0,0,0,0.0126,0.0134,0.012,0.0127,0.0125,0.0103,0.0098,0.0087,0.0072,0.0064,0.0043,0.0019,0.0004,-0.0001,-0.0023,-0.0023,-0.0054,-0.0018,-0.0013,-0.0007,0.0007,-0.0025,-0.002,-0.0072,-0.0072,-0.0072,0,0,0.0135,0.0131,0.0135,0.0131,0.0121,0.0133,0.01,0.0099,0.0112,0.0061,0.0068,0.0037,0.0006,0.0006,0.0002,-0.0009,-0.0012,-0.0007,-0.0002,0.001,-0.0024,-0.0019,-0.0014,-0.0071,-0.0072,-0.0072,0,0,0.0165,0.0154,0.0174,0.0171,0.0164,0.0153,0.0156,0.0139,0.0135,0.0133,0.0101,0.0086,0.0058,0.0049,0.0039,0.0061,0.0015,0.0045,0.0103,0.0072,0.0077,0.008,0.004,0.004,0.0054,0.0054,0.0054,0,0.0177,0.02,0.0179,0.0198,0.0204,0.0168,0.0194,0.0186,0.0167,0.017,0.0146,0.0112,0.0085,0.0095,0.0103,0.0078,0.0044,0.0085,0.0082,0.0085,0.0087,0.0045,0.0043,0.0058,0.0058,0.0057,0.0057,0,0.0223,0.0241,0.0253,0.0268,0.0271,0.0284,0.0273,0.0273,0.0257,0.0246,0.0243,0.0202,0.0185,0.0171,0.0146,0.0153,0.0117,0.0091,0.0071,0.0098,0.0051,0.0048,0.0064,0.0063,0.0061,0.006,0,0,0.0253,0.0282,0.0287,0.031,0.031,0.032,0.0341,0.0353,0.0367,0.0341,0.0358,0.0331,0.0298,0.0284,0.0246,0.0224,0.0205,0.0171,0.0167,0.0143,0.0126,0.0083,0.0074,0.0175,0.0175,0.0175,0.0084,0,0.0298,0.0355,0.0355,0.0408,0.0436,0.0418,0.0442,0.0444,0.0429,0.0431,0.0397,0.0389,0.0345,0.0332,0.0307,0.0226,0.0201,0.0232,0.0093,0.0089,0.0058,0.0071,0.0175,0.0082,0.0081,0.008,0.008,0,0.0344,0.0378,0.0441,0.0485,0.0495,0.0521,0.0547,0.0562,0.0553,0.0539,0.0524,0.0481,0.0456,0.0403,0.0305,0.0322,0.0238,0.0173,0.0167,0.01,0.0041,0.0048,0.0073,0.0074,0.0074,0.0075,0.0075,0,0.0378,0.0437,0.0493,0.0507,0.0548,0.0577,0.0596,0.0599,0.0615,0.0605,0.06,0.0558,0.0525,0.0434,0.0299,0.0298,0.017,0.0148,0.0034,0.0029,0.0058,0.0055,0.0081,0.0081,0.0081,0.0082,0.0082,0,0.0421,0.0465,0.0517,0.0546,0.0611,0.0624,0.0677,0.0681,0.069,0.0706,0.0659,0.0644,0.0527,0.0436,0.032,0.0164,0.0183,0.005,0.0008,0.0093,0.0095,0.0055,0.0053,0.0078,0.0079,0.008,0.008,0,0.0441,0.0476,0.0541,0.0604,0.0629,0.0671,0.0727,0.0756,0.0759,0.0774,0.0773,0.0704,0.0579,0.0446,0.0278,0.0182,0.0041,-0.0022,0.0075,0.0038,-0.0083,-0.008,-0.0144,-0.0146,-0.0148,-0.015,-0.0151,0,0.0456,0.0493,0.0575,0.0613,0.0646,0.0711,0.0752,0.0784,0.0808,0.0801,0.0804,0.0704,0.0634,0.0379,0.0232,0.0011,-0.0026,-0.0095,-0.0076,-0.007,-0.0104,-0.0098,-0.0092,-0.0154,-0.0154,-0.0155,-0.0155,0,0.0475,0.0502,0.055,0.063,0.0689,0.0753,0.0813,0.0837,0.0863,0.0872,0.0817,0.0694,0.0546,0.0361,0.0181,0.0025,-0.0042,-0.0115,-0.0112,-0.0094,-0.0082,-0.0113,-0.0105,-0.0161,-0.0161,-0.016,-0.016,0,0.0476,0.0506,0.0565,0.0633,0.0708,0.0767,0.0806,0.0833,0.0858,0.0855,0.083,0.0686,0.0609,0.0365,0.0203,0.0042,0.0004,-0.0039,-0.004,-0.0035,0.002,0.0052,-0.0014,0,0,0,0,0,0.0469,0.0499,0.0563,0.0634,0.0709,0.0752,0.083,0.0862,0.0895,0.0859,0.0847,0.0708,0.0466,0.0369,0.0199,0.0157,-0.0031,-0.0048,-0.0082,-0.0196,-0.0189,-0.0146,0,0,0,0,0,0,0.046,0.0514,0.0549,0.062,0.0667,0.0747,0.0799,0.0827,0.0809,0.082,0.0697,0.0653,0.042,0.0554,0.0188,0.0141,0.0094,-0.0152,-0.0156,-0.02,-0.0194,-0.0188,-0.0142,0,0,0,0,0]}]]